Location: San Vito
(41.8833°N, 12.9833°E)
Time: 06:08:09
(UTC+00:00)

BREEZE-M DEB (TANK) - Pass Details

Date: 17 November 2019
Orbit: 328 x 16736 km, 49.5° (Epoch: 10 December)

Event Time Altitude Azimuth Distance (km) Brightness Sun altitude
Exits shadow 05:05:33 14° 274° (W) 1,320 4.1 -10.2°
Maximum altitude 05:07:46 36° 209° (SSW) 988 4.0 -9.8°
Drops below altitude 10° 05:14:06 10° 145° (SE) 3,606 7.8 -8.7°
Sets 05:20:03 0° 139° (SE) 6,262 9.3 -7.7°
